This is the latest recevied weather packets stored in our database for station/object XE1E-15. If no packets are shown the sender has not sent any weather packets the latest 10 day(s).
| Time | Temp. | Humidity | Pressure | Rain* | Wind** | Luminosity | Snow |
|---|---|---|---|---|---|---|---|
| 1777502139 | 32.22° C | 14% | 1019.2 hPa | - | - | - | - |
| 1777501179 | 32.78° C | 14% | 1019.3 hPa | - | - | - | - |
| 1777500219 | 32.22° C | 13% | 1019.5 hPa | - | - | - | - |
| 1777499259 | 32.78° C | 13% | 1019.5 hPa | - | - | - | - |
| 1777498299 | 33.33° C | 13% | 1019.7 hPa | - | - | - | - |
| 1777497339 | 32.78° C | 14% | 1020 hPa | - | - | - | - |
| 1777496379 | 32.78° C | 14% | 1020.2 hPa | - | - | - | - |
| 1777495424 | 32.22° C | 15% | 1020.7 hPa | - | - | - | - |
| 1777493498 | 32.22° C | 15% | 1021.3 hPa | - | - | - | - |
| 1777492538 | 31.67° C | 15% | 1021.7 hPa | - | - | - | - |
| 1777491099 | 31.67° C | 16% | 1022.1 hPa | - | - | - | - |
| 1777490139 | 30.56° C | 16% | 1022.4 hPa | - | - | - | - |
| 1777489178 | 30.56° C | 16% | 1022.6 hPa | - | - | - | - |
| 1777488218 | 31.11° C | 16% | 1022.8 hPa | - | - | - | - |
| 1777487258 | 32.78° C | 15% | 1023.2 hPa | - | - | - | - |
| 1777486298 | 32.78° C | 16% | 1023.4 hPa | - | - | - | - |
| 1777485338 | 31.11° C | 16% | 1023.7 hPa | - | - | - | - |
| 1777484378 | 33.89° C | 16% | 1024 hPa | - | - | - | - |
| 1777483417 | 32.22° C | 18% | 1024.1 hPa | - | - | - | - |
| 1777482457 | 32.78° C | 19% | 1024.2 hPa | - | - | - | - |
| 1777481497 | 31.67° C | 20% | 1024.4 hPa | - | - | - | - |
| 1777480537 | 31.67° C | 23% | 1024.5 hPa | - | - | - | - |
| 1777479577 | 31.11° C | 24% | 1024.6 hPa | - | - | - | - |
| 1777478617 | 30° C | 26% | 1024.9 hPa | - | - | - | - |
| 1777477657 | 28.89° C | 26% | 1024.8 hPa | - | - | - | - |
* Rain since midnight (hover to see other rain measurements)
** Current wind speed in m/s (hover to see current wind gust speed)